This demonstration page uses our WeatherBlox Daily Observations layout. Learn more.

41.55636, -103.73856

Hourly Observations for May 8, 2017

Temp ( °F °C ) Dew Point ( °F °C ) Humidity (%) Winds ( mph kmh ) Pressure ( in mb ) Visibility ( mi km ) Precip ( " mm )
12:53 am 00:53 Clear 56 13.3 46 7.8 70 70 WNW 9 15 29.71 1006 10 16.0934 0 0
1:53 am 01:53 Clear 52 11.1 45 7.2 77 77 Calm 29.71 1006 10 16.0934 0 0
2:53 am 02:53 Clear 53 11.7 46 7.8 77 77 NNE 5 7 29.71 1006 10 16.0934 0 0
3:53 am 03:53 Clear 52 11.1 47 8.3 83 83 WNW 8 13 29.75 1008 10 16.0934 0 0
4:53 am 04:53 Clear 50 10 45 7.2 83 83 NNW 8 13 29.79 1009 10 16.0934 0 0
5:53 am 05:53 Sunny 51 10.6 46 7.8 83 83 WNW 7 11 29.82 1010 10 16.0934 0 0
6:53 am 06:53 Sunny 52 11.1 46 7.8 80 80 W 6 9 29.87 1012 10 16.0934 0 0
7:53 am 07:53 Sunny 60 15.6 50 10 70 70 W 8 13 29.91 1013 10 16.0934 0 0
8:45 am 08:45 Mostly Cloudy 64 17.8 51 10.6 63 63 NNW 13 20 29.88 1012 10 16.0934 0 0
8:53 am 08:53 Mostly Cloudy 62 16.7 50 10 65 65 N 10 17 29.93 1013 10 16.0934 0 0
9:07 am 09:07 Cloudy 63 17.2 50 10 63 63 NW 13 20 29.88 1012 10 16.0934 0 0
9:53 am 09:53 Cloudy 63 17.2 50 10 63 63 NNW 10 17 29.94 1014 10 16.0934 0 0
10:53 am 10:53 Cloudy 65 18.3 50 10 59 59 NNW 15 24 29.96 1014 10 16.0934 0 0
11:53 am 11:53 Cloudy 66 18.9 49 9.4 54 54 N 10 17 29.97 1015 10 16.0934 0 0
12:53 pm 12:53 Cloudy 67 19.4 49 9.4 53 53 N 8 13 29.97 1015 10 16.0934 0 0
1:53 pm 13:53 Cloudy 66 18.9 48 8.9 52 52 NNE 9 15 29.97 1015 10 16.0934 0 0
2:53 pm 14:53 Cloudy 66 18.9 49 9.4 54 54 NNE 8 13 29.96 1015 10 16.0934 0 0
3:53 pm 15:53 Cloudy 68 20 49 9.4 51 51 NE 9 15 29.93 1014 10 16.0934 0 0
4:53 pm 16:53 Cloudy 67 19.4 48 8.9 51 51 ENE 12 19 29.97 1015 10 16.0934 0 0
5:53 pm 17:53 Cloudy 66 18.9 49 9.4 54 54 NNE 13 20 29.97 1015 10 16.0934 0 0
6:53 pm 18:53 Partly Cloudy 64 17.8 48 8.9 56 56 NNE 10 17 29.98 1015 10 16.0934 0 0
7:53 pm 19:53 Mostly Sunny 61 16.1 43 6.1 52 52 NNE 10 17 29.98 1015 10 16.0934 0 0
8:53 pm 20:53 Clear 59 15 43 6.1 56 56 SE 8 13 29.99 1016 10 16.0934 0 0
9:53 pm 21:53 Cloudy with Light Rain 58 14.4 47 8.3 67 67 E 14 22 29.98 1015 10 16.0934 0 0.0254
10:53 pm 22:53 Cloudy 56 13.3 48 8.9 75 75 NW 7 11 29.98 1015 10 16.0934 0.02 0.508
11:53 pm 23:53 Cloudy 56 13.3 46 7.8 70 70 NE 3 6 30.01 1016 10 16.0934 0 0.0254

Powered by AerisWeather